Vertical_Velocity
1 1 3 -2 -6 -3 -4 -4 0 8 4 5 2 2 -4 0 -0 3 3 2 -3 4
0 -3 -3 1 -4 -6 -0 -2 0 -1 1 1 9 6 8 6 -0 4 8 5 2 5
-0 0 1 -1 1 4 -1 0 0 -1 -5 -2 3 1 -1 -1 0 1 4 1 2 3
0 -2 -3 -2 -2 -1 2 -0 -3 -3 2 3 -1 -2 -4 -3 -2 -1 -4 -1 3 6
1 2 -1 -2 -2 -2 -2 -2 -0 2 -1 -4 -2 2 5 6 5 2 2 1 -0 -1
2 2 -0 0 1 0 -3 -4 -2 -1 -2 0 1 -3 -4 -3 -3 -2 -2 -2 -0 -2
3 -1 1 1 -1 -0 1 -0 -1 -3 -4 -3 -3 -2 1 1 0 0 -0 -1 -0 -3
-2 -2 3 3 1 -0 0 1 2 1 -1 -3 -3 -3 -2 -2 -1 -3 -4 -4 -2 -3
0 1 1 1 1 -1 2 8 1 2 6 6 5 1 -2 -2 -1 -3 -3 -0 0 1
2 -1 -2 -0 0 -1 -1 -3 4 6 -2 2 4 7 5 4 0 -1 2 4 1 0
4 2 1 0 0 -2 -2 -2 1 2 -0 -3 5 3 1 10 3 5 6 3 4 -3
-4 -1 4 5 2 2 4 1 -0 -0 -4 -6 10 -2 -7 2 3 -2 1 6 5 7
-6 -4 -4 -3 -1 3 7 7 4 6 1 -5 -0 -4 0 2 0 -4 6 18 12 -10
-3 -3 -3 -3 -1 -1 -6 0 3 5 4 2 1 2 9 5 8 -2 -2 -1 4 -2
Height
5695 5695 5696 5696 5695 5694 5694 5694 5696 5698 5699 5701 5704 5707 5709 5711 5711 5713 5715 5717 5717 5720
5694 5695 5694 5694 5694 5693 5694 5694 5695 5696 5697 5699 5702 5703 5705 5707 5707 5708 5711 5713 5713 5715
5691 5692 5692 5693 5693 5694 5694 5694 5695 5696 5696 5697 5699 5699 5700 5700 5703 5705 5707 5708 5710 5712
5688 5689 5690 5689 5689 5690 5692 5693 5694 5695 5695 5696 5696 5696 5696 5695 5696 5698 5699 5701 5703 5706
5685 5685 5685 5685 5685 5685 5685 5687 5689 5691 5692 5693 5693 5694 5695 5695 5695 5696 5696 5697 5698 5699
5680 5680 5681 5683 5683 5683 5683 5682 5682 5683 5685 5686 5688 5689 5689 5690 5690 5690 5690 5690 5691 5691
5672 5675 5676 5677 5678 5679 5679 5680 5680 5679 5678 5678 5679 5681 5683 5684 5684 5684 5683 5682 5683 5684
5666 5669 5670 5671 5672 5674 5674 5674 5675 5675 5675 5675 5674 5675 5675 5675 5675 5676 5676 5676 5676 5676
5660 5662 5662 5663 5663 5664 5665 5666 5665 5668 5669 5669 5670 5670 5668 5666 5665 5665 5665 5666 5666 5666
5654 5653 5654 5655 5655 5655 5655 5655 5657 5657 5655 5657 5658 5660 5661 5659 5656 5655 5654 5654 5654 5653
5646 5647 5646 5646 5646 5645 5645 5646 5646 5646 5645 5645 5647 5648 5647 5645 5642 5640 5641 5641 5642 5640
5635 5637 5638 5638 5637 5636 5635 5635 5634 5633 5632 5631 5633 5633 5631 5630 5629 5628 5627 5627 5625 5624
5621 5622 5623 5624 5625 5624 5624 5624 5623 5622 5619 5618 5617 5616 5616 5616 5615 5614 5613 5614 5609 5607
5607 5607 5608 5610 5611 5609 5609 5607 5606 5606 5605 5604 5603 5601 5602 5602 5600 5597 5594 5591 5590 5589